| time (UTC) | temp F | wind direction | speed MPH | gust MPH | rain 1hr in | rain 24hr in | rain mn in | humidity % | barometer mb |
| 20260509061428 | 53 | 145 | 1.0 | 3.0 | 0.00 | 0.00 | 0.00 | 78 | 1011.4 |
| 20260509060924 | 53 | 145 | 1.0 | 5.0 | 0.00 | 0.00 | 0.00 | 78 | 1011.5 |
| 20260509060416 | 53 | 145 | 1.0 | 5.0 | 0.00 | 0.00 | 0.00 | 78 | 1011.6 |
| 20260509055915 | 53 | 153 | 0.0 | 1.0 | 0.00 | 0.00 | 0.00 | 77 | 1011.8 |
| 20260509055413 | 54 | 153 | 0.0 | 3.0 | 0.00 | 0.00 | 0.00 | 77 | 1011.7 |
| 20260509055356 | 54 | 153 | 1.0 | 3.0 | 0.00 | 0.00 | 0.00 | 76 | 1011.8 |
| 20260509054643 | 54 | 153 | 0.0 | 2.0 | 0.00 | 0.00 | 0.00 | 76 | 1011.8 |
| 20260509053908 | 55 | 153 | 0.0 | 2.0 | 0.00 | 0.00 | 0.00 | 75 | 1011.9 |
| 20260509053408 | 55 | 153 | 0.0 | 2.0 | 0.00 | 0.00 | 0.00 | 74 | 1011.9 |
| 20260509053133 | 56 | 153 | 1.0 | 5.0 | 0.00 | 0.00 | 0.00 | 73 | 1012.0 |
| 20260509052408 | 56 | 153 | 2.0 | 6.0 | 0.00 | 0.00 | 0.00 | 72 | 1011.9 |
| 20260509051904 | 57 | 161 | 3.0 | 9.0 | 0.00 | 0.00 | 0.00 | 71 | 1012.0 |
| 20260509051402 | 57 | 148 | 4.0 | 10.0 | 0.00 | 0.00 | 0.00 | 71 | 1012.0 |
| 20260509050902 | 57 | 221 | 3.0 | 10.0 | 0.00 | 0.00 | 0.00 | 72 | 1012.1 |
| 20260509050622 | 57 | 160 | 2.0 | 7.0 | 0.00 | 0.00 | 0.00 | 72 | 1012.1 |
| 20260509045902 | 57 | 136 | 2.0 | 4.0 | 0.00 | 0.00 | 0.00 | 71 | 1012.1 |
| 20260509045619 | 57 | 136 | 2.0 | 5.0 | 0.00 | 0.00 | 0.00 | 71 | 1012.1 |
| 20260509045125 | 57 | 134 | 2.0 | 5.0 | 0.00 | 0.00 | 0.00 | 72 | 1012.0 |
| 20260509044358 | 57 | 136 | 2.0 | 4.0 | 0.00 | 0.00 | 0.00 | 72 | 1012.1 |
| 20260509044124 | 57 | 135 | 2.0 | 7.0 | 0.00 | 0.00 | 0.00 | 73 | 1012.2 |
| 20260509043358 | 56 | 134 | 2.0 | 7.0 | 0.00 | 0.00 | 0.00 | 74 | 1012.2 |
| 20260509042853 | 56 | 175 | 0.0 | 4.0 | 0.00 | 0.00 | 0.00 | 76 | 1012.2 |
| 20260509042617 | 55 | 235 | 0.0 | 0.0 | 0.00 | 0.00 | 0.00 | 77 | 1012.2 |
| 20260509041841 | 55 | 236 | 0.0 | 1.0 | 0.00 | 0.00 | 0.00 | 76 | 1012.1 |
| 20260509041335 | 54 | 243 | 0.0 | 1.0 | 0.00 | 0.00 | 0.00 | 76 | 1012.1 |
| 20260509041046 | 54 | 242 | 0.0 | 0.0 | 0.00 | 0.00 | 0.00 | 77 | 1012.2 |
| 20260509040322 | 54 | 242 | 0.0 | 0.0 | 0.00 | 0.00 | 0.00 | 77 | 1012.1 |
| 20260509035815 | 54 | 242 | 0.0 | 0.0 | 0.00 | 0.00 | 0.00 | 76 | 1012.1 |
| 20260509035310 | 54 | 242 | 0.0 | 2.0 | 0.00 | 0.00 | 0.00 | 76 | 1012.2 |
| 20260509034803 | 54 | 242 | 1.0 | 2.0 | 0.00 | 0.00 | 0.00 | 76 | 1012.1 |
| 20260509034259 | 54 | 242 | 1.0 | 3.0 | 0.00 | 0.00 | 0.00 | 75 | 1012.1 |
| 20260509033755 | 54 | 242 | 1.0 | 3.0 | 0.00 | 0.00 | 0.00 | 75 | 1012.3 |
| 20260509033255 | 54 | 243 | 0.0 | 0.0 | 0.00 | 0.00 | 0.00 | 74 | 1012.2 |
| 20260509032754 | 54 | 243 | 0.0 | 0.0 | 0.00 | 0.00 | 0.00 | 73 | 1012.0 |
| 20260509032254 | 55 | 243 | 0.0 | 0.0 | 0.00 | 0.00 | 0.00 | 72 | 1012.2 |
| 20260509031755 | 55 | 242 | 0.0 | 0.0 | 0.00 | 0.00 | 0.00 | 72 | 1012.2 |
| 20260509031255 | 56 | 242 | 0.0 | 0.0 | 0.00 | 0.00 | 0.00 | 71 | 1012.4 |
| 20260509030755 | 56 | 242 | 0.0 | 0.0 | 0.00 | 0.00 | 0.00 | 71 | 1012.5 |
| 20260509030256 | 56 | 242 | 0.0 | 0.0 | 0.00 | 0.00 | 0.00 | 72 | 1012.6 |
| 20260509025753 | 56 | 243 | 0.0 | 0.0 | 0.00 | 0.00 | 0.00 | 72 | 1012.8 |
| 20260509025252 | 56 | 243 | 0.0 | 0.0 | 0.00 | 0.00 | 0.00 | 71 | 1012.7 |
| 20260509024754 | 56 | 243 | 0.0 | 0.0 | 0.00 | 0.00 | 0.00 | 69 | 1012.7 |
| 20260509024252 | 56 | 243 | 0.0 | 0.0 | 0.00 | 0.00 | 0.00 | 69 | 1012.7 |
| 20260509024013 | 56 | 243 | 0.0 | 0.0 | 0.00 | 0.00 | 0.00 | 68 | 1012.8 |
| 20260509023250 | 56 | 243 | 0.0 | 0.0 | 0.00 | 0.00 | 0.00 | 68 | 1012.7 |
| 20260509022751 | 56 | 243 | 0.0 | 0.0 | 0.00 | 0.00 | 0.00 | 67 | 1012.6 |
| 20260509022513 | 56 | 242 | 0.0 | 0.0 | 0.00 | 0.00 | 0.00 | 66 | 1012.5 |
| 20260509021749 | 56 | 242 | 0.0 | 0.0 | 0.00 | 0.00 | 0.00 | 65 | 1012.5 |
| 20260509021512 | 56 | 242 | 0.0 | 0.0 | 0.00 | 0.00 | 0.00 | 65 | 1012.3 |
| 20260509020736 | 56 | 242 | 0.0 | 0.0 | 0.00 | 0.00 | 0.00 | 65 | 1012.3 |
| 20260509020235 | 56 | 242 | 0.0 | 0.0 | 0.00 | 0.00 | 0.00 | 66 | 1012.3 |
| 20260509015734 | 56 | 243 | 0.0 | 0.0 | 0.00 | 0.00 | 0.00 | 66 | 1012.3 |
| 20260509015233 | 56 | 243 | 0.0 | 0.0 | 0.00 | 0.00 | 0.00 | 66 | 1012.4 |
| 20260509014732 | 56 | 243 | 0.0 | 0.0 | 0.00 | 0.00 | 0.00 | 66 | 1012.4 |
| 20260509014231 | 56 | 243 | 0.0 | 0.0 | 0.00 | 0.00 | 0.00 | 65 | 1012.3 |
| 20260509013729 | 56 | 243 | 0.0 | 0.0 | 0.00 | 0.00 | 0.00 | 66 | 1012.2 |
| 20260509013230 | 57 | 243 | 0.0 | 0.0 | 0.00 | 0.00 | 0.00 | 64 | 1012.2 |
| 20260509012947 | 57 | 243 | 0.0 | 0.0 | 0.00 | 0.00 | 0.00 | 62 | 1012.1 |
| 20260509012441 | 57 | 242 | 0.0 | 0.0 | 0.00 | 0.00 | 0.00 | 63 | 1012.2 |
| 20260509012323 | 57 | 243 | 0.0 | 0.0 | 0.00 | 0.00 | 0.00 | 62 | 1012.1 |
| 20260509011231 | 57 | 243 | 0.0 | 0.0 | 0.00 | 0.00 | 0.00 | 63 | 1012.0 |
| 20260509010726 | 56 | 243 | 0.0 | 0.0 | 0.00 | 0.00 | 0.00 | 62 | 1011.9 |
| 20260509010226 | 56 | 243 | 0.0 | 0.0 | 0.00 | 0.00 | 0.00 | 62 | 1011.8 |
| 20260509005726 | 57 | 243 | 0.0 | 0.0 | 0.00 | 0.00 | 0.00 | 60 | 1011.8 |
| 20260509005225 | 57 | 243 | 0.0 | 0.0 | 0.00 | 0.00 | 0.00 | 59 | 1011.7 |
| 20260509004721 | 57 | 243 | 0.0 | 0.0 | 0.00 | 0.00 | 0.00 | 58 | 1011.5 |
| 20260509004220 | 58 | 243 | 0.0 | 0.0 | 0.00 | 0.00 | 0.00 | 58 | 1011.4 |
| 20260509003720 | 58 | 243 | 0.0 | 0.0 | 0.00 | 0.00 | 0.00 | 58 | 1011.5 |
| 20260509003220 | 59 | 243 | 0.0 | 0.0 | 0.00 | 0.00 | 0.00 | 56 | 1011.4 |
| 20260509002720 | 59 | 243 | 0.0 | 0.0 | 0.00 | 0.00 | 0.00 | 54 | 1011.3 |
| 20260509002444 | 60 | 243 | 0.0 | 0.0 | 0.00 | 0.00 | 0.00 | 52 | 1011.2 |
| 20260509001717 | 61 | 243 | 0.0 | 0.0 | 0.00 | 0.00 | 0.00 | 52 | 1011.2 |
| 20260509001219 | 61 | 243 | 0.0 | 0.0 | 0.00 | 0.00 | 0.00 | 50 | 1011.1 |
| 20260509000732 | 62 | 243 | 0.0 | 0.0 | 0.00 | 0.00 | 0.00 | 50 | 1011.0 |
| 20260509000659 | 62 | 243 | 0.0 | 0.0 | 0.00 | 0.00 | 0.00 | 48 | 1011.0 |
| 20260508235715 | 63 | 242 | 1.0 | 3.0 | 0.00 | 0.00 | 0.00 | 47 | 1011.0 |
| 20260508235215 | 63 | 242 | 1.0 | 3.0 | 0.00 | 0.00 | 0.00 | 46 | 1011.0 |
| 20260508234715 | 64 | 242 | 1.0 | 3.0 | 0.00 | 0.00 | 0.00 | 45 | 1011.0 |
| 20260508234435 | 64 | 242 | 2.0 | 3.0 | 0.00 | 0.00 | 0.00 | 45 | 1010.9 |
| 20260508233713 | 64 | 242 | 2.0 | 7.0 | 0.00 | 0.00 | 0.00 | 45 | 1010.8 |
| 20260508233214 | 64 | 242 | 2.0 | 7.0 | 0.00 | 0.00 | 0.00 | 45 | 1010.8 |
| 20260508232714 | 64 | 266 | 2.0 | 6.0 | 0.00 | 0.00 | 0.00 | 45 | 1010.7 |
| 20260508232214 | 64 | 277 | 1.0 | 3.0 | 0.00 | 0.00 | 0.00 | 45 | 1010.7 |
| 20260508231714 | 64 | 278 | 1.0 | 6.0 | 0.00 | 0.00 | 0.00 | 45 | 1010.6 |
| 20260508231213 | 64 | 278 | 2.0 | 6.0 | 0.00 | 0.00 | 0.00 | 45 | 1010.6 |
| 20260508230713 | 64 | 273 | 2.0 | 4.0 | 0.00 | 0.00 | 0.00 | 45 | 1010.6 |
| 20260508230214 | 64 | 258 | 2.0 | 8.0 | 0.00 | 0.00 | 0.00 | 44 | 1010.6 |
| 20260508225935 | 64 | 256 | 2.0 | 8.0 | 0.00 | 0.00 | 0.00 | 44 | 1010.6 |
| 20260508225703 | 64 | 264 | 2.0 | 8.0 | 0.00 | 0.00 | 0.00 | 44 | 1010.5 |
| 20260508224713 | 64 | 246 | 2.0 | 8.0 | 0.00 | 0.00 | 0.00 | 42 | 1010.5 |
| 20260508224213 | 65 | 281 | 3.0 | 7.0 | 0.00 | 0.00 | 0.00 | 44 | 1010.5 |
| 20260508224207 | 65 | 242 | 3.0 | 8.0 | 0.00 | 0.00 | 0.00 | 42 | 1010.4 |
| 20260508223213 | 65 | 164 | 3.0 | 8.0 | 0.00 | 0.00 | 0.00 | 44 | 1010.4 |
| 20260508222714 | 65 | 259 | 3.0 | 9.0 | 0.00 | 0.00 | 0.00 | 42 | 1010.4 |
| 20260508222217 | 65 | 256 | 2.0 | 9.0 | 0.00 | 0.00 | 0.00 | 41 | 1010.4 |
| 20260508221707 | 65 | 265 | 3.0 | 8.0 | 0.00 | 0.00 | 0.00 | 43 | 1010.5 |
| 20260508221426 | 65 | 274 | 2.0 | 8.0 | 0.00 | 0.00 | 0.00 | 43 | 1010.5 |
| 20260508220659 | 65 | 259 | 2.0 | 7.0 | 0.00 | 0.00 | 0.00 | 43 | 1010.5 |
| 20260508220152 | 65 | 255 | 2.0 | 6.0 | 0.00 | 0.00 | 0.00 | 42 | 1010.4 |
| 20260508215921 | 65 | 244 | 2.0 | 8.0 | 0.00 | 0.00 | 0.00 | 42 | 1010.5 |
| 20260508215411 | 65 | 260 | 2.0 | 8.0 | 0.00 | 0.00 | 0.00 | 43 | 1010.5 |
| 20260508214652 | 65 | 281 | 2.0 | 7.0 | 0.00 | 0.00 | 0.00 | 42 | 1010.4 |
| 20260508214153 | 65 | 255 | 3.0 | 9.0 | 0.00 | 0.00 | 0.00 | 42 | 1010.4 |
| 20260508213923 | 65 | 261 | 3.0 | 9.0 | 0.00 | 0.00 | 0.00 | 40 | 1010.5 |
| 20260508213416 | 65 | 267 | 3.0 | 7.0 | 0.00 | 0.00 | 0.00 | 41 | 1010.4 |
| 20260508212655 | 65 | 269 | 3.0 | 9.0 | 0.00 | 0.00 | 0.00 | 41 | 1010.3 |
| 20260508212154 | 66 | 261 | 4.0 | 12.0 | 0.00 | 0.00 | 0.00 | 40 | 1010.3 |
| 20260508212139 | 66 | 243 | 4.0 | 16.0 | 0.00 | 0.00 | 0.00 | 38 | 1010.4 |
| 20260508211417 | 66 | 270 | 3.0 | 16.0 | 0.00 | 0.00 | 0.00 | 39 | 1010.4 |
| 20260508210658 | 66 | 219 | 2.0 | 8.0 | 0.00 | 0.00 | 0.00 | 40 | 1010.3 |
| 20260508210155 | 66 | 232 | 2.0 | 7.0 | 0.00 | 0.00 | 0.00 | 43 | 1010.2 |
| 20260508205655 | 67 | 275 | 4.0 | 10.0 | 0.00 | 0.00 | 0.00 | 40 | 1010.2 |
| 20260508205151 | 68 | 231 | 4.0 | 10.0 | 0.00 | 0.00 | 0.00 | 37 | 1010.3 |
| 20260508204652 | 69 | 266 | 4.0 | 10.0 | 0.00 | 0.00 | 0.00 | 40 | 1010.2 |
| 20260508204144 | 68 | 11 | 4.0 | 10.0 | 0.00 | 0.00 | 0.00 | 40 | 1010.2 |
| 20260508203639 | 68 | 270 | 4.0 | 14.0 | 0.00 | 0.00 | 0.00 | 39 | 1010.3 |
| 20260508203132 | 66 | 265 | 3.0 | 14.0 | 0.00 | 0.00 | 0.00 | 41 | 1010.4 |
| 20260508202627 | 67 | 262 | 4.0 | 10.0 | 0.00 | 0.00 | 0.00 | 39 | 1010.4 |
| 20260508202122 | 66 | 252 | 5.0 | 10.0 | 0.00 | 0.00 | 0.00 | 37 | 1010.5 |
| 20260508201615 | 67 | 305 | 4.0 | 13.0 | 0.00 | 0.00 | 0.00 | 40 | 1010.5 |
| 20260508201108 | 66 | 278 | 4.0 | 13.0 | 0.00 | 0.00 | 0.00 | 39 | 1010.7 |
| 20260508200604 | 66 | 254 | 6.0 | 13.0 | 0.00 | 0.00 | 0.00 | 39 | 1010.7 |
| 20260508200104 | 67 | 268 | 7.0 | 19.0 | 0.00 | 0.00 | 0.00 | 38 | 1010.8 |
| 20260508195553 | 67 | 348 | 5.0 | 19.0 | 0.00 | 0.00 | 0.00 | 41 | 1010.9 |
| 20260508195044 | 67 | 264 | 6.0 | 15.0 | 0.00 | 0.00 | 0.00 | 37 | 1010.9 |
| 20260508194539 | 67 | 314 | 7.0 | 25.0 | 0.00 | 0.00 | 0.00 | 37 | 1010.8 |
| 20260508194031 | 67 | 265 | 7.0 | 25.0 | 0.00 | 0.00 | 0.00 | 37 | 1011.0 |
| 20260508193528 | 68 | 247 | 6.0 | 16.0 | 0.00 | 0.00 | 0.00 | 38 | 1010.9 |
| 20260508193022 | 69 | 243 | 7.0 | 16.0 | 0.00 | 0.00 | 0.00 | 40 | 1011.0 |
| 20260508192516 | 68 | 264 | 8.0 | 21.0 | 0.00 | 0.00 | 0.00 | 39 | 1011.1 |
| 20260508192008 | 69 | 346 | 9.0 | 25.0 | 0.00 | 0.00 | 0.00 | 37 | 1011.1 |
| 20260508191503 | 68 | 246 | 6.0 | 25.0 | 0.00 | 0.00 | 0.00 | 38 | 1011.1 |
| 20260508191220 | 68 | 252 | 6.0 | 11.0 | 0.00 | 0.00 | 0.00 | 43 | 1011.2 |
| 20260508190450 | 67 | 249 | 6.0 | 12.0 | 0.00 | 0.00 | 0.00 | 46 | 1011.2 |
| 20260508185944 | 67 | 281 | 5.0 | 15.0 | 0.00 | 0.00 | 0.00 | 40 | 1011.3 |
| 20260508185439 | 67 | 280 | 5.0 | 15.0 | 0.00 | 0.00 | 0.00 | 39 | 1011.3 |
| 20260508184931 | 65 | 266 | 6.0 | 16.0 | 0.00 | 0.00 | 0.00 | 41 | 1011.4 |
| 20260508184646 | 65 | 272 | 7.0 | 16.0 | 0.00 | 0.00 | 0.00 | 39 | 1011.4 |
| 20260508183920 | 65 | 207 | 7.0 | 23.0 | 0.00 | 0.00 | 0.00 | 39 | 1011.4 |
| 20260508183413 | 66 | 252 | 9.0 | 23.0 | 0.00 | 0.00 | 0.00 | 38 | 1011.4 |
| 20260508182911 | 66 | 246 | 7.0 | 19.0 | 0.00 | 0.00 | 0.00 | 39 | 1011.4 |
| 20260508182403 | 67 | 238 | 7.0 | 17.0 | 0.00 | 0.00 | 0.00 | 39 | 1011.4 |
| 20260508181859 | 66 | 246 | 8.0 | 17.0 | 0.00 | 0.00 | 0.00 | 37 | 1011.4 |
| 20260508181350 | 67 | 251 | 7.0 | 17.0 | 0.00 | 0.00 | 0.00 | 40 | 1011.4 |
| 20260508181106 | 67 | 299 | 7.0 | 16.0 | 0.00 | 0.00 | 0.00 | 41 | 1011.7 |
| 20260508180339 | 65 | 297 | 8.0 | 17.0 | 0.00 | 0.00 | 0.00 | 40 | 1011.7 |
| 20260508175832 | 65 | 230 | 7.0 | 17.0 | 0.00 | 0.00 | 0.00 | 40 | 1011.8 |
| 20260508175328 | 65 | 261 | 6.0 | 18.0 | 0.00 | 0.00 | 0.00 | 40 | 1011.8 |
| 20260508174820 | 66 | 259 | 7.0 | 18.0 | 0.00 | 0.00 | 0.00 | 39 | 1011.7 |
| 20260508174549 | 66 | 265 | 7.0 | 16.0 | 0.00 | 0.00 | 0.00 | 38 | 1011.8 |
| 20260508173808 | 66 | 284 | 7.0 | 16.0 | 0.00 | 0.00 | 0.00 | 42 | 1011.9 |
| 20260508173301 | 66 | 193 | 7.0 | 21.0 | 0.00 | 0.00 | 0.00 | 41 | 1011.9 |
| 20260508172756 | 64 | 257 | 6.0 | 21.0 | 0.00 | 0.00 | 0.00 | 43 | 1012.0 |
| 20260508172251 | 64 | 203 | 7.0 | 23.0 | 0.00 | 0.00 | 0.00 | 43 | 1012.2 |
| 20260508172235 | 65 | 266 | 7.0 | 23.0 | 0.00 | 0.00 | 0.00 | 39 | 1012.0 |
| 20260508171239 | 64 | 329 | 7.0 | 18.0 | 0.00 | 0.00 | 0.00 | 44 | 1012.1 |
| 20260508170732 | 65 | 265 | 7.0 | 18.0 | 0.00 | 0.00 | 0.00 | 38 | 1012.0 |
| 20260508170228 | 66 | 242 | 6.0 | 15.0 | 0.00 | 0.00 | 0.00 | 42 | 1012.0 |
| 20260508165720 | 65 | 263 | 6.0 | 15.0 | 0.00 | 0.00 | 0.00 | 43 | 1011.9 |
| 20260508165215 | 66 | 262 | 6.0 | 15.0 | 0.00 | 0.00 | 0.00 | 41 | 1012.0 |
| 20260508164710 | 66 | 264 | 7.0 | 19.0 | 0.00 | 0.00 | 0.00 | 44 | 1012.1 |
| 20260508164201 | 65 | 211 | 7.0 | 19.0 | 0.00 | 0.00 | 0.00 | 42 | 1012.3 |
| 20260508163658 | 65 | 194 | 6.0 | 16.0 | 0.00 | 0.00 | 0.00 | 47 | 1012.1 |
| 20260508163150 | 65 | 273 | 5.0 | 16.0 | 0.00 | 0.00 | 0.00 | 44 | 1012.2 |
| 20260508162646 | 65 | 298 | 5.0 | 12.0 | 0.00 | 0.00 | 0.00 | 48 | 1012.3 |
| 20260508162358 | 64 | 267 | 5.0 | 12.0 | 0.00 | 0.00 | 0.00 | 42 | 1012.3 |
| 20260508161632 | 64 | 275 | 7.0 | 15.0 | 0.00 | 0.00 | 0.00 | 45 | 1012.5 |
| 20260508161128 | 64 | 209 | 7.0 | 15.0 | 0.00 | 0.00 | 0.00 | 45 | 1012.6 |
| 20260508160620 | 64 | 269 | 6.0 | 15.0 | 0.00 | 0.00 | 0.00 | 43 | 1012.7 |
| 20260508160117 | 64 | 281 | 7.0 | 19.0 | 0.00 | 0.00 | 0.00 | 44 | 1012.8 |
| 20260508155609 | 63 | 254 | 6.0 | 19.0 | 0.00 | 0.00 | 0.00 | 46 | 1012.9 |
| 20260508155104 | 62 | 265 | 6.0 | 16.0 | 0.00 | 0.00 | 0.00 | 47 | 1013.1 |
| 20260508154556 | 62 | 196 | 7.0 | 17.0 | 0.00 | 0.00 | 0.00 | 46 | 1013.2 |
| 20260508154051 | 61 | 207 | 6.0 | 17.0 | 0.00 | 0.00 | 0.00 | 44 | 1013.3 |
| 20260508153544 | 61 | 218 | 5.0 | 16.0 | 0.00 | 0.00 | 0.00 | 48 | 1013.3 |
| 20260508153038 | 61 | 267 | 6.0 | 16.0 | 0.00 | 0.00 | 0.00 | 47 | 1013.4 |
| 20260508152533 | 61 | 218 | 6.0 | 15.0 | 0.00 | 0.00 | 0.00 | 47 | 1013.4 |
| 20260508152031 | 61 | 249 | 5.0 | 15.0 | 0.00 | 0.00 | 0.00 | 45 | 1013.4 |
| 20260508151756 | 60 | 252 | 4.0 | 10.0 | 0.00 | 0.00 | 0.00 | 47 | 1013.4 |
| 20260508151247 | 60 | 192 | 6.0 | 16.0 | 0.00 | 0.00 | 0.00 | 46 | 1013.7 |
| 20260508150811 | 59 | 214 | 6.0 | 16.0 | 0.00 | 0.00 | 0.00 | 47 | 1013.6 |
| 20260508150030 | 60 | 194 | 5.0 | 12.0 | 0.00 | 0.00 | 0.00 | 46 | 1013.6 |
| 20260508145528 | 59 | 217 | 6.0 | 12.0 | 0.00 | 0.00 | 0.00 | 50 | 1013.7 |
| 20260508145259 | 59 | 246 | 6.0 | 14.0 | 0.00 | 0.00 | 0.00 | 48 | 1013.7 |
| 20260508144529 | 59 | 265 | 5.0 | 14.0 | 0.00 | 0.00 | 0.00 | 45 | 1013.8 |
| 20260508144030 | 59 | 231 | 5.0 | 10.0 | 0.00 | 0.00 | 0.00 | 50 | 1013.8 |
| 20260508143530 | 59 | 229 | 4.0 | 10.0 | 0.00 | 0.00 | 0.00 | 47 | 1013.8 |
| 20260508143036 | 59 | 259 | 3.0 | 8.0 | 0.00 | 0.00 | 0.00 | 54 | 1013.8 |
| 20260508142802 | 58 | 265 | 4.0 | 10.0 | 0.00 | 0.00 | 0.00 | 53 | 1013.8 |
| 20260508142032 | 58 | 250 | 5.0 | 10.0 | 0.00 | 0.00 | 0.00 | 49 | 1013.9 |
| 20260508141754 | 58 | 246 | 4.0 | 10.0 | 0.00 | 0.00 | 0.00 | 52 | 1013.9 |
| 20260508141022 | 57 | 196 | 3.0 | 7.0 | 0.00 | 0.00 | 0.00 | 55 | 1013.8 |
| 20260508140528 | 56 | 257 | 3.0 | 8.0 | 0.00 | 0.00 | 0.00 | 55 | 1013.9 |
| 20260508140018 | 56 | 202 | 3.0 | 8.0 | 0.00 | 0.00 | 0.00 | 54 | 1013.9 |
| 20260508135523 | 56 | 254 | 3.0 | 8.0 | 0.00 | 0.00 | 0.00 | 55 | 1013.9 |
| 20260508135025 | 56 | 253 | 3.0 | 7.0 | 0.00 | 0.00 | 0.00 | 57 | 1014.0 |
| 20260508134524 | 56 | 199 | 3.0 | 8.0 | 0.00 | 0.00 | 0.00 | 58 | 1014.0 |
| 20260508134027 | 56 | 248 | 3.0 | 9.0 | 0.00 | 0.00 | 0.00 | 59 | 1014.0 |
| 20260508133521 | 56 | 273 | 3.0 | 9.0 | 0.00 | 0.00 | 0.00 | 58 | 1014.0 |
| 20260508133256 | 57 | 274 | 3.0 | 9.0 | 0.00 | 0.00 | 0.00 | 60 | 1014.0 |
| 20260508132521 | 57 | 195 | 4.0 | 9.0 | 0.00 | 0.00 | 0.00 | 55 | 1014.1 |
| 20260508132023 | 56 | 231 | 4.0 | 8.0 | 0.00 | 0.00 | 0.00 | 55 | 1014.1 |
| 20260508131520 | 56 | 217 | 4.0 | 8.0 | 0.00 | 0.00 | 0.00 | 56 | 1014.2 |
| 20260508131237 | 55 | 221 | 4.0 | 8.0 | 0.00 | 0.00 | 0.00 | 57 | 1014.2 |
| 20260508130750 | 55 | 261 | 3.0 | 8.0 | 0.00 | 0.00 | 0.00 | 60 | 1014.1 |
| 20260508130014 | 55 | 233 | 3.0 | 8.0 | 0.00 | 0.00 | 0.00 | 63 | 1014.2 |
| 20260508125512 | 54 | 213 | 1.0 | 5.0 | 0.00 | 0.00 | 0.00 | 67 | 1014.2 |
| 20260508125014 | 54 | 198 | 0.0 | 5.0 | 0.00 | 0.00 | 0.00 | 70 | 1014.2 |
| 20260508124744 | 54 | 155 | 2.0 | 6.0 | 0.00 | 0.00 | 0.00 | 72 | 1014.2 |
| 20260508124013 | 53 | 153 | 2.0 | 6.0 | 0.00 | 0.00 | 0.00 | 71 | 1014.1 |
| 20260508123514 | 52 | 158 | 1.0 | 6.0 | 0.00 | 0.00 | 0.00 | 70 | 1014.2 |
| 20260508123015 | 52 | 254 | 2.0 | 6.0 | 0.00 | 0.00 | 0.00 | 71 | 1014.2 |
| 20260508122514 | 51 | 283 | 2.0 | 6.0 | 0.00 | 0.00 | 0.00 | 73 | 1014.5 |
| 20260508122010 | 50 | 286 | 1.0 | 4.0 | 0.00 | 0.00 | 0.00 | 77 | 1014.2 |
| 20260508121509 | 49 | 308 | 1.0 | 4.0 | 0.00 | 0.00 | 0.00 | 79 | 1014.2 |
| 20260508121009 | 48 | 308 | 2.0 | 4.0 | 0.00 | 0.00 | 0.00 | 80 | 1014.1 |
| 20260508120735 | 48 | 342 | 1.0 | 3.0 | 0.00 | 0.00 | 0.00 | 82 | 1014.0 |
| 20260508120011 | 47 | 342 | 0.0 | 3.0 | 0.00 | 0.00 | 0.00 | 83 | 1014.0 |
| 20260508115513 | 47 | 342 | 0.0 | 1.0 | 0.00 | 0.00 | 0.00 | 85 | 1014.0 |
| 20260508115234 | 46 | 342 | 0.0 | 0.0 | 0.00 | 0.00 | 0.00 | 85 | 1013.9 |
| 20260508114510 | 46 | 342 | 0.0 | 0.0 | 0.00 | 0.00 | 0.00 | 87 | 1013.9 |
| 20260508114009 | 45 | 342 | 0.0 | 0.0 | 0.00 | 0.00 | 0.00 | 88 | 1014.0 |
| 20260508113507 | 44 | 342 | 0.0 | 1.0 | 0.00 | 0.00 | 0.00 | 89 | 1014.0 |
| 20260508113007 | 44 | 342 | 0.0 | 1.0 | 0.00 | 0.00 | 0.00 | 90 | 1014.0 |
| 20260508112504 | 43 | 342 | 0.0 | 1.0 | 0.00 | 0.00 | 0.00 | 90 | 1014.0 |
| 20260508112005 | 42 | 342 | 0.0 | 0.0 | 0.00 | 0.00 | 0.00 | 90 | 1013.9 |
| 20260508111500 | 42 | 343 | 0.0 | 0.0 | 0.00 | 0.00 | 0.00 | 90 | 1013.8 |
| 20260508110958 | 42 | 342 | 0.0 | 0.0 | 0.00 | 0.00 | 0.00 | 90 | 1013.7 |
| 20260508110457 | 41 | 342 | 0.0 | 0.0 | 0.00 | 0.00 | 0.00 | 91 | 1013.8 |
| 20260508105959 | 41 | 343 | 0.0 | 0.0 | 0.00 | 0.00 | 0.00 | 91 | 1013.8 |
| 20260508105458 | 40 | 342 | 0.0 | 0.0 | 0.00 | 0.00 | 0.00 | 90 | 1013.7 |
| 20260508104959 | 40 | 342 | 0.0 | 0.0 | 0.00 | 0.00 | 0.00 | 90 | 1013.6 |
| 20260508104933 | 40 | 342 | 0.0 | 0.0 | 0.00 | 0.00 | 0.00 | 90 | 1013.4 |
| 20260508103954 | 39 | 342 | 0.0 | 0.0 | 0.00 | 0.00 | 0.00 | 90 | 1013.5 |
| 20260508103452 | 39 | 342 | 0.0 | 1.0 | 0.00 | 0.00 | 0.00 | 90 | 1013.4 |
| 20260508102950 | 39 | 342 | 0.0 | 1.0 | 0.00 | 0.00 | 0.00 | 90 | 1013.4 |
| 20260508102449 | 39 | 342 | 0.0 | 0.0 | 0.00 | 0.00 | 0.00 | 90 | 1013.4 |
| 20260508101949 | 39 | 342 | 0.0 | 0.0 | 0.00 | 0.00 | 0.00 | 89 | 1013.4 |
| 20260508101444 | 39 | 342 | 0.0 | 0.0 | 0.00 | 0.00 | 0.00 | 89 | 1013.3 |
| 20260508100944 | 39 | 342 | 0.0 | 0.0 | 0.00 | 0.00 | 0.00 | 89 | 1013.2 |
| 20260508100704 | 39 | 342 | 0.0 | 0.0 | 0.00 | 0.00 | 0.00 | 89 | 1013.2 |
| 20260508095933 | 40 | 342 | 0.0 | 0.0 | 0.00 | 0.00 | 0.00 | 89 | 1013.1 |
| 20260508095426 | 40 | 342 | 0.0 | 0.0 | 0.00 | 0.00 | 0.00 | 89 | 1013.1 |
| 20260508094921 | 40 | 342 | 0.0 | 0.0 | 0.00 | 0.00 | 0.00 | 89 | 1013.1 |
| 20260508094414 | 40 | 342 | 0.0 | 0.0 | 0.00 | 0.00 | 0.00 | 88 | 1013.1 |
| 20260508093909 | 40 | 342 | 0.0 | 0.0 | 0.00 | 0.00 | 0.00 | 88 | 1013.0 |
| 20260508093856 | 40 | 342 | 0.0 | 0.0 | 0.00 | 0.00 | 0.00 | 88 | 1013.0 |
| 20260508092855 | 41 | 342 | 0.0 | 0.0 | 0.00 | 0.00 | 0.00 | 88 | 1013.0 |
| 20260508092350 | 41 | 342 | 0.0 | 0.0 | 0.00 | 0.00 | 0.00 | 88 | 1012.9 |
| 20260508091845 | 41 | 342 | 0.0 | 0.0 | 0.00 | 0.00 | 0.00 | 88 | 1013.0 |
| 20260508091605 | 41 | 342 | 0.0 | 0.0 | 0.00 | 0.00 | 0.00 | 87 | 1013.0 |
| 20260508090832 | 41 | 342 | 0.0 | 0.0 | 0.00 | 0.00 | 0.00 | 87 | 1013.0 |
| 20260508090327 | 42 | 342 | 0.0 | 0.0 | 0.00 | 0.00 | 0.00 | 86 | 1013.0 |
| 20260508085820 | 42 | 342 | 0.0 | 0.0 | 0.00 | 0.00 | 0.00 | 86 | 1013.0 |
| 20260508085315 | 42 | 342 | 0.0 | 0.0 | 0.00 | 0.00 | 0.00 | 85 | 1013.0 |
| 20260508084808 | 42 | 342 | 0.0 | 0.0 | 0.00 | 0.00 | 0.00 | 85 | 1012.9 |
| 20260508084304 | 43 | 342 | 0.0 | 0.0 | 0.00 | 0.00 | 0.00 | 84 | 1012.9 |
| 20260508084023 | 43 | 342 | 0.0 | 0.0 | 0.00 | 0.00 | 0.00 | 83 | 1012.7 |
| 20260508083251 | 44 | 342 | 0.0 | 0.0 | 0.00 | 0.00 | 0.00 | 82 | 1012.7 |
| 20260508082746 | 44 | 343 | 0.0 | 0.0 | 0.00 | 0.00 | 0.00 | 81 | 1012.6 |
| 20260508082240 | 45 | 342 | 0.0 | 2.0 | 0.00 | 0.00 | 0.00 | 80 | 1012.6 |
| 20260508081733 | 46 | 342 | 0.0 | 3.0 | 0.00 | 0.00 | 0.00 | 78 | 1012.5 |
| 20260508081227 | 46 | 343 | 1.0 | 4.0 | 0.00 | 0.00 | 0.00 | 78 | 1012.6 |
| 20260508080722 | 47 | 343 | 2.0 | 4.0 | 0.00 | 0.00 | 0.00 | 78 | 1012.3 |
| 20260508080215 | 47 | 339 | 1.0 | 7.0 | 0.00 | 0.00 | 0.00 | 77 | 1012.3 |
| 20260508075709 | 47 | 338 | 2.0 | 7.0 | 0.00 | 0.00 | 0.00 | 77 | 1012.2 |
| 20260508075203 | 47 | 355 | 2.0 | 5.0 | 0.00 | 0.00 | 0.00 | 78 | 1012.2 |
| 20260508074922 | 47 | 322 | 1.0 | 6.0 | 0.00 | 0.00 | 0.00 | 77 | 1012.1 |
| 20260508074149 | 47 | 321 | 2.0 | 6.0 | 0.00 | 0.00 | 0.00 | 77 | 1012.1 |
| 20260508073644 | 47 | 355 | 2.0 | 5.0 | 0.00 | 0.00 | 0.00 | 76 | 1012.0 |
| 20260508073141 | 48 | 5 | 3.0 | 5.0 | 0.00 | 0.01 | 0.00 | 76 | 1012.0 |
| 20260508072633 | 48 | 5 | 3.0 | 6.0 | 0.00 | 0.01 | 0.00 | 75 | 1012.0 |
| 20260508072125 | 48 | 343 | 2.0 | 6.0 | 0.00 | 0.01 | 0.00 | 75 | 1011.9 |
| 20260508071844 | 48 | 319 | 3.0 | 8.0 | 0.00 | 0.01 | 0.00 | 74 | 1011.9 |
| 20260508071113 | 49 | 347 | 3.0 | 8.0 | 0.00 | 0.01 | 0.00 | 73 | 1011.9 |
| 20260508070833 | 49 | 325 | 2.0 | 7.0 | 0.00 | 0.01 | 0.00 | 73 | 1011.8 |
| 20260508070108 | 49 | 320 | 4.0 | 11.0 | 0.00 | 0.01 | 0.00 | 72 | 1011.8 |
| 20260508065556 | 49 | 259 | 3.0 | 11.0 | 0.00 | 0.01 | 0.00 | 72 | 1011.8 |
| 20260508065052 | 49 | 293 | 3.0 | 9.0 | 0.00 | 0.01 | 0.00 | 72 | 1011.8 |
| 20260508064544 | 50 | 340 | 4.0 | 11.0 | 0.00 | 0.02 | 0.00 | 71 | 1011.8 |
| 20260508064041 | 50 | 341 | 5.0 | 11.0 | 0.00 | 0.02 | 0.00 | 70 | 1011.8 |
| 20260508063532 | 51 | 315 | 6.0 | 14.0 | 0.00 | 0.03 | 0.00 | 70 | 1011.7 |
| 20260508063259 | 51 | 5 | 6.0 | 14.0 | 0.00 | 0.05 | 0.00 | 69 | 1011.7 |
| 20260508062520 | 51 | 242 | 4.0 | 13.0 | 0.00 | 0.05 | 0.00 | 69 | 1011.6 |
| 20260508062242 | 51 | 342 | 4.0 | 10.0 | 0.00 | 0.05 | 0.00 | 68 | 1011.5 |